Flag for Puerto Rico Weather past 2 weeks in San Juan, Puerto Rico

Now
77 °F

Passing clouds.


Feels Like: 78 °F
Forecast: 77 / 83 °F
Wind: No wind

Location: Luis Munoz Marin

Current Time: Dec 18, 2014 at 9:46:07 PM

Latest Report: Dec 18, 2014 at 8:56 PM


Visibility: 10 mi

Pressure: 29.99 "Hg

Humidity: 85%

Dew point: 72 °F

Location of San JuanLocation

Historic Weather in San Juan — Graph

°F

San Juan temperature yesterday

Maximum temperature yesterday: 83 °F (at 11:56 AM)
Minimum temperature yesterday: 75 °F (at 4:56 AM)
Average temperature yesterday: 79 °F

Past Weeks' High & Low Weather Summary

 TemperatureHumidityPressure
High88 °F (Dec 14, 11:56 AM)100% (Dec 15, 5:56 AM)30.08 "Hg (Dec 15, 5:56 AM)
Low71 °F (Dec 8, 5:56 AM)55% (Dec 8, 10:56 AM)29.84 "Hg (Dec 14, 2:56 PM)
Average79 °F79%29.95 "Hg
* Reported Dec 3 8:56 PM — Dec 18 8:56 PM, San Juan, Weather by CustomWeather, © 2014

Note: Actual official high and low records may vary slightly from our data, if they occured in-between our weather recording intervals... More about our weather records

Advertising

San Juan weather history for previous 24 hours

 ConditionsComfort  
Time TempWeatherWind HumidityBarometerVisibility
8:56 PM
Dec 18
77 °FPassing clouds.No wind85%29.99 "Hg10 mi
7:56 PM78 °FPassing clouds.No wind76%29.98 "Hg10 mi
6:56 PM78 °FPassing clouds.No wind79%29.98 "Hg10 mi
5:56 PM78 °FScattered clouds.5 mph76%29.98 "Hg10 mi
4:56 PM79 °FScattered clouds.10 mph77%29.96 "Hg10 mi
3:56 PM78 °FBroken clouds.10 mph84%29.96 "Hg10 mi
2:56 PM80 °FScattered clouds.8 mph74%29.97 "Hg10 mi
1:56 PM82 °FScattered clouds.13 mph67%29.98 "Hg10 mi
12:56 PM82 °FBroken clouds.15 mph70%30.01 "Hg10 mi
11:56 AM81 °FBroken clouds.14 mph72%30.04 "Hg10 mi
10:56 AM82 °FBroken clouds.12 mph63%30.06 "Hg10 mi
9:56 AM81 °FBroken clouds.14 mph72%30.06 "Hg10 mi
8:56 AM80 °FScattered clouds.10 mph67%30.05 "Hg10 mi
7:56 AM78 °FScattered clouds.10 mph74%30.03 "Hg10 mi
6:56 AM77 °FPassing clouds.9 mph69%30.01 "Hg10 mi
5:56 AM77 °FPassing clouds.8 mph71%30.00 "Hg10 mi
4:56 AM76 °FLight rain. Passing clouds.6 mph82%29.99 "Hg10 mi
3:56 AM77 °FPassing clouds.7 mph71%29.99 "Hg10 mi
2:56 AM77 °FPassing clouds.10 mph69%30.00 "Hg10 mi
1:56 AM77 °FPassing clouds.12 mph71%30.01 "Hg10 mi
12:56 AM78 °FPassing clouds.8 mph71%30.02 "Hg10 mi
11:56 PM
Dec 17
78 °FPassing clouds.8 mph69%30.02 "Hg10 mi
10:56 PM78 °FPassing clouds.6 mph69%30.05 "Hg10 mi
9:56 PM78 °FPassing clouds.8 mph69%30.05 "Hg10 mi
Weather by CustomWeather, © 2014

See weather overviewHow to use our weather pages